#timestamp,LO_Frequency,Hit 
1598652015.5,286047002.1,N
1598652035.3,286047002.7,N
1598652055.2,286047001.8,N
1598652075.0,286047002.4,N
1598652075.9,286047002.4,N
1598652095.7,286047001.5,N
1598652115.6,286047001.6,N
1598652135.4,286047001.6,N
1598652155.2,286047001.7,N
1598652175.1,286047001.7,N
1598652176.0,286047001.7,N
1598652195.8,286047004.4,P
1598652215.7,286046999.8,N
1598652235.5,286046999.8,N
1598652255.3,286047000.9,N
1598652275.2,286047000.1,N
1598652295.9,286047000.6,N
1598652315.7,286047000.0,N
1598652335.6,286047000.5,N
1598652355.4,286047000.9,N
1598652375.2,286047000.3,N
1598652395.1,286047000.4,N
1598652396.0,286047000.4,N
1598652415.8,286047000.2,N
1598652435.6,286047000.1,N
1598652455.5,286047002.3,N
1598652475.3,286047001.6,N
1598652495.1,286047000.0,N
1598652515.9,286047002.4,N
1598652535.7,286047002.2,N
1598652555.5,286047002.4,N
1598652575.4,286047002.1,N
1598652595.2,286047000.1,N
1598652615.0,286047001.6,N
1598652615.9,286047001.6,N
1598652635.8,286047002.4,N
1598652655.6,286047001.6,N
1598652675.4,286047001.9,N
1598652695.3,286047002.7,N
1598652715.1,286047002.1,N
1598652716.0,286047002.1,N
1598652735.8,286047002.0,N
1598652755.7,286046999.9,N
1598652775.5,286047002.8,N
1598652795.3,286047001.4,N
1598652815.2,286047001.6,N
1598652835.9,286047002.1,N
1598652855.7,286047002.5,N
1598652875.5,286047002.4,N
1598652895.4,286047002.3,N
1598652915.2,286046999.8,N
1598652935.0,286047002.7,N
1598652935.9,286047002.7,N
1598652955.8,286047002.7,N
1598652975.6,286047001.9,N
1598652995.4,286047002.3,N
1598653015.3,286047002.2,N
1598653035.1,286047001.5,N
1598653055.8,286047001.6,N
1598653075.7,286047001.7,N
1598653095.5,286047004.4,P
1598653115.4,286047004.3,P
1598653135.2,286047000.6,N
1598653155.0,286046998.1,N
1598653155.9,286046998.1,N
1598653175.8,286047000.6,N
1598653195.6,286047001.2,N
1598653215.4,286047001.1,N
1598653235.3,286047000.3,N
1598653255.1,286047001.0,N
1598653256.0,286047001.0,N
1598653275.8,286047000.3,N
1598653295.7,286047000.6,N
1598653315.5,286047000.5,N
1598653335.3,286046998.7,N
1598653355.2,286046998.4,N
1598653375.9,286047001.1,N
1598653395.7,286047000.6,N
1598653415.6,286047000.5,N
1598653435.4,286047001.1,N
1598653455.2,286046998.1,N
1598653475.1,286046998.4,N
1598653476.0,286046998.4,N
1598653495.8,286047000.3,N
1598653515.6,286047001.2,N
1598653535.5,286046998.8,N
1598653555.3,286046998.8,N
1598653575.1,286046998.6,N
1598653595.9,286046998.1,N
1598653615.7,286046999.2,N
1598653635.5,286046999.0,N
1598653655.4,286046999.0,N
1598653675.2,286046999.1,N
1598653695.0,286046999.4,N
1598653695.9,286046999.4,N
1598653715.8,286046999.5,N
1598653735.6,286046998.4,N
1598653755.4,286046999.1,N
1598653775.3,286046999.4,N
1598653795.1,286046996.7,P
1598653796.0,286046996.7,N
1598653815.8,286046999.5,N
1598653835.7,286046999.0,N
1598653855.5,286046996.5,N
1598653875.3,286046999.0,N
1598653895.2,286046996.7,N
1598653915.9,286046996.6,N
1598653935.7,286046999.5,N
1598653955.6,286046999.2,N
1598653975.4,286046999.2,N
1598653995.2,286046999.2,N
1598654015.1,286046999.6,N
1598654016.0,286046999.6,N
1598654035.8,286046996.9,N
1598654055.6,286046997.2,N
1598654075.5,286046998.7,N
1598654095.3,286046999.1,N
1598654115.1,286046999.5,N
1598654135.9,286046996.8,N
1598654155.7,286046997.3,N
1598654175.5,286046996.5,N
1598654195.4,286046996.9,N
1598654215.2,286046996.9,N
1598654235.0,286046996.5,N
1598654235.9,286046996.5,N
1598654255.8,286046996.9,N
1598654275.6,286046999.5,N
1598654295.4,286046997.4,N
1598654315.3,286046996.7,N
1598654335.1,286046996.5,N
1598654336.0,286046996.5,N
1598654355.8,286046997.0,N
1598654375.7,286046996.9,N
1598654395.5,286046999.2,N
1598654415.3,286046999.5,N
1598654435.2,286046997.0,N
1598654455.9,286046999.4,N
1598654475.7,286046996.9,N
1598654495.6,286046998.9,N
1598654515.4,286046999.2,N
1598654535.2,286046996.6,N
1598654555.1,286046998.1,N
1598654556.0,286046998.1,N
1598654575.8,286046998.1,N
1598654595.6,286046999.3,N
1598654615.5,286046999.4,N
1598654635.3,286046998.8,N
1598654655.1,286047001.2,N
1598654675.9,286046998.8,N
1598654695.7,286046998.8,N
1598654715.5,286047001.0,N
1598654735.3,286046998.2,N
1598654755.2,286046998.7,N
1598654775.0,286047000.0,N
1598654775.9,286047000.0,N
1598654795.8,286047001.0,N
1598654815.6,286047000.8,N
1598654835.4,286047001.1,N
1598654855.3,286047000.5,N
1598654875.1,286046998.4,N
1598654876.0,286046998.4,N
1598654895.8,286047001.2,N
1598654915.7,286047000.3,N
1598654935.5,286047000.7,N
1598654955.3,286046998.5,N
1598654975.2,286047000.0,N
1598654995.9,286047000.6,N
1598655015.7,286047000.3,N
1598655035.6,286047000.2,N
1598655055.4,286047002.8,N
1598655075.2,286047000.0,N
1598655095.1,286047002.8,N
1598655096.0,286047002.8,N
1598655115.8,286047000.0,N
1598655135.6,286047000.1,N
1598655155.5,286047002.3,N
1598655175.3,286047000.5,N
1598655195.1,286047002.8,N
1598655215.9,286047001.0,N
1598655235.7,286047002.3,N
1598655255.5,286047000.1,N
1598655275.4,286047002.8,N
1598655295.2,286046999.7,N
1598655315.0,286047002.4,N
1598655315.9,286047002.4,N
1598655335.8,286047000.1,N
1598655355.6,286047001.6,N
1598655375.4,286047002.6,N
1598655395.3,286047000.4,N
1598655415.1,286047002.3,N
1598655416.0,286047002.3,N
1598655435.8,286047004.4,P
1598655455.7,286047000.0,N
1598655475.5,286046999.8,N
1598655495.3,286047000.1,N
1598655515.2,286047000.9,N
1598655535.0,286047000.2,N
1598655535.9,286047000.2,N
1598655555.7,286047000.2,N
1598655575.6,286047000.9,N
1598655595.4,286047000.9,N
